Miscellaneous Local Product
Issued by NWS Hastings, NE

Home | Current Version | Previous Version | Text Only | Print | Product List | Glossary Off
Versions: 1 2 3 4 5 6 7 8 9 10 11 12 13 14 15 16 17 18 19 20 21 22 23 24 25 26 27 28 29 30 31 32 33 34 35 36 37 38 39 40 41 42 43 44 45 46 47 48 49 50

000
AXUS43 KGID 260002
MISGRI

GID CWA HOURLY WEATHER ROUNDUP
NATIONAL WEATHER SERVICE HASTINGS NE
600 PM CST THU DEC 25 2014

NOTE: "FAIR" INDICATES FEW OR NO CLOUDS BELOW 12,000 FEET WITH NO
SIGNIFICANT WEATHER AND/OR OBSTRUCTIONS TO VISIBILITY.

...SOUTH CENTRAL NEBRASKA...

CITY           SKY/WX    TMP DP  RH WIND       PRES   REMARKS
GRAND ISLAND   CLEAR     31  24  75 N9        29.62R WCI  23
HASTINGS       PTCLDY    33  24  69 N10       29.59R WCI  25
KEARNEY        CLEAR     34  25  69 NW10      29.61R WCI  26
ORD            CLOUDY    32  27  81 N17       29.66R WCI  21
YORK           PTCLDY    36  28  75 N6        29.62R WCI  31
AURORA         PTCLDY    33  27  77 N8        29.61R WCI  26
LEXINGTON      PTCLDY    32  28  85 N16       29.63R WCI  21
HOLDREGE       FAIR      36  25  64 N9        29.60R WCI  29
HEBRON         CLOUDY    38  28  68 CALM      29.59R

...NEBRASKA PANHANDLE...

CITY           SKY/WX    TMP DP  RH WIND       PRES   REMARKS
CHADRON        LGT SNOW  25  21  85 NE18G25   29.83R FOG     WCI  11
ALLIANCE       LGT SNOW  26  24  92 N26G35    29.72R FOG     WCI  10
SCOTTSBLUFF    LGT SNOW  26  22  84 N12       29.77R FOG     WCI  16
SIDNEY         LGT SNOW  26  24  92 NE15      29.70R VSB 3/4 WCI  14

...WESTERN AND NORTH CENTRAL NEBRASKA...

CITY           SKY/WX    TMP DP  RH WIND       PRES   REMARKS
VALENTINE      CLOUDY    28  25  88 N16G22    29.79R WCI  16
AINSWORTH      LGT SNOW  28  27  97 N16G23    29.75R VSB 1   WCI  16
ONEILL         CLOUDY    32  31  94 N15       29.72R WCI  22
BROKEN BOW     CLOUDY    31  27  85 N20       29.66R WCI  19
IMPERIAL       CLOUDY    31  26  82 N22G28    29.66R WCI  18
NORTH PLATTE   CLOUDY    31  25  78 NE17G32   29.68R WCI  19
MCCOOK         PTCLDY    34  27  75 N15       29.62R WCI  24

...EASTERN NEBRASKA...

CITY           SKY/WX    TMP DP  RH WIND       PRES   REMARKS
NORFOLK        CLOUDY    35  31  85 N10       29.67R WCI  27
SO SIOUX CITY  CLEAR     34  29  82 N6        29.68R WCI  29
TEKAMAH        CLEAR     37  32  82 E7        29.66R WCI  32
COLUMBUS       CLEAR     32  25  74 N3        29.65R
ALBION         CLOUDY    34  29  82 N14       29.66R WCI  25
OMAHA EPPLEY   PTCLDY    41  31  67 SE8       29.66R
MILLARD        CLEAR     40  32  73 CALM      29.64R
LINCOLN        PTCLDY    40  29  64 CALM      29.64R
NEBRASKA CITY  MOCLDY    43  30  59 S10       29.65R
BEATRICE       MOCLDY    41  31  67 S5        29.62R
FALLS CITY     MOCLDY    45  32  60 SE12      29.66R

...NORTHERN KANSAS...

CITY           SKY/WX    TMP DP  RH WIND       PRES   REMARKS
GOODLAND       CLEAR     33  28  81 N12       29.59R WCI  24
HILL CITY      PTCLDY    39  25  57 NW12      29.57R WCI  32
NORTON         CLEAR     34  21  60 NW10      29.58R WCI  26
PHILLIPSBURG   CLEAR     45  27  49 N10       29.56R
SMITH CENTER   CLEAR     37  27  65 N7        29.56R WCI  32
BELOIT         CLEAR     46  30  53 E7        29.56R
HAYS           MOCLDY    50  25  37 SE5       29.54R
RUSSELL        MOCLDY    48  28  46 S5        29.53R
CONCORDIA      MOCLDY    44  30  57 SE6       29.58R
SALINA         MOCLDY    49  30  48 S12       29.59R
TOPEKA         MOCLDY    51  31  46 SE8       29.69R



USA.gov is the U.S. government's official web portal to all federal, state and local government web resources and services.